Wind_Speed
11 11 10 10 10 10 10 10 11 12 14 15 17 18 18 17 17 17 16 16 16 16 17 16 17 17 17 17 17 17 17 17 18 18 18 18 18 18 18 18 18 18 18 18 18 18 18 18 18 18 18 18
14 13 13 12 12 11 11 11 11 12 12 13 14 16 17 18 19 19 19 18 18 18 18 18 18 18 18 18 18 19 19 19 19 19 19 19 19 19 19 19 19 19 19 19 20 20 20 20 20 20 19 19
16 15 15 14 14 13 13 13 12 12 13 13 13 14 15 17 18 20 21 21 21 20 20 20 20 19 20 20 20 20 20 20 20 20 20 19 19 19 19 19 19 20 20 20 20 20 21 21 21 21 20 20
17 17 17 16 16 16 16 15 14 14 14 14 14 14 14 15 16 18 19 21 22 22 22 22 22 22 22 22 22 22 22 22 22 21 21 21 21 21 21 20 20 20 21 21 21 21 21 21 22 22 21 21
19 19 19 19 19 19 18 18 17 17 16 15 15 15 15 15 15 16 17 18 19 21 22 23 23 24 24 24 25 25 25 24 24 24 24 24 23 23 23 23 23 23 22 22 22 22 22 22 22 23 23 23
20 21 21 21 20 20 20 20 20 20 19 18 17 16 16 16 16 16 16 17 18 19 20 21 22 23 24 25 26 27 27 26 26 26 26 26 26 26 25 25 25 25 25 25 24 24 24 24 24 24 24 24
21 21 22 22 22 22 22 22 22 22 22 21 20 19 18 18 17 17 17 17 18 19 19 20 20 21 22 24 25 26 27 27 27 28 28 28 28 28 28 27 28 27 27 27 27 27 26 26 26 26 26 26
21 21 22 22 22 22 23 23 23 24 24 24 23 23 22 21 20 19 19 19 19 20 20 20 21 21 21 22 24 24 25 26 27 27 28 28 28 28 29 29 29 29 29 29 29 29 29 28 28 28 28 28
20 20 21 22 23 23 23 23 24 24 25 25 26 26 25 24 23 23 22 22 22 22 22 22 22 22 22 23 23 24 25 25 26 26 27 27 27 27 28 28 28 29 29 29 29 30 30 30 30 30 30 30
20 20 21 22 22 23 24 24 24 25 25 26 27 27 27 27 27 26 25 25 25 25 26 25 25 24 24 24 24 25 25 25 26 26 27 26 26 27 28 27 28 28 29 29 29 30 30 30 31 31 31 32
21 21 22 22 22 23 24 24 25 25 26 27 27 28 28 28 28 28 28 28 28 29 29 29 28 28 27 27 27 27 27 27 28 28 28 27 27 28 28 28 28 28 29 29 29 30 30 31 31 31 32 32
23 23 23 23 24 24 24 25 25 26 26 27 27 28 28 29 29 29 29 30 30 31 32 32 32 31 31 31 31 31 31 31 31 31 31 30 29 30 30 29 29 29 29 30 30 31 31 31 31 32 32 32
24 24 24 25 25 26 26 26 26 27 27 27 28 28 29 29 29 29 29 30 31 32 33 34 35 35 35 34 34 34 34 34 34 34 34 33 32 33 33 32 32 31 31 31 31 31 31 31 31 32 32 32
26 26 26 26 27 27 27 28 28 28 28 29 29 29 30 30 29 29 29 30 31 32 33 34 35 36 37 37 37 37 37 37 37 36 36 36 35 35 36 36 34 34 34 34 34 33 33 33 32 32 33 33
28 28 28 29 29 29 29 30 30 29 30 30 31 31 31 31 31 31 30 30 31 32 33 34 35 36 37 38 39 39 39 39 39 39 39 38 37 37 38 38 37 36 36 37 36 36 35 35 35 34 34 34
30 30 30 30 31 31 31 31 31 31 31 31 32 33 33 33 33 32 32 32 32 32 33 33 34 35 36 37 39 39 39 40 40 40 40 40 39 38 39 39 38 38 38 38 38 37 37 38 38 37 37 36
32 32 31 31 31 32 33 33 33 32 32 32 33 33 34 34 34 34 34 34 34 34 34 34 34 35 36 37 38 38 38 39 40 41 41 40 40 39 39 39 39 39 38 39 38 38 38 38 39 39 39 39
33 32 32 32 32 32 33 33 33 33 33 33 33 34 34 34 35 35 36 36 36 36 36 36 35 35 36 37 37 37 37 38 39 40 40 40 40 39 38 39 39 38 38 38 38 38 37 38 39 39 40 41
32 32 32 32 32 32 32 33 33 33 33 33 34 34 34 35 35 36 36 37 38 38 38 38 38 37 38 38 38 37 37 39 39 40 40 40 40 39 38 38 39 38 38 38 38 37 37 37 38 38 39 40
31 31 32 32 32 32 33 33 33 33 33 34 34 35 35 36 36 37 37 37 38 39 40 40 40 40 40 40 39 39 38 39 40 40 41 41 40 39 38 38 38 38 39 39 38 38 37 37 37 37 38 39
30 31 31 31 32 32 33 33 33 33 34 34 35 36 36 37 37 38 38 38 38 38 39 40 42 43 43 43 42 41 41 41 42 42 42 42 41 41 40 39 38 39 39 40 39 39 38 37 37 37 37 38
29 30 31 31 31 31 31 32 32 33 33 34 34 35 36 37 37 38 38 37 37 38 38 40 41 43 44 45 45 45 44 43 43 44 44 44 44 43 42 41 40 40 40 41 40 39 39 38 37 37 37 38
30 31 31 32 31 31 30 30 31 31 32 33 33 34 35 36 37 37 38 37 38 38 39 40 41 42 44 46 47 47 47 46 46 46 46 47 46 46 45 44 44 43 43 43 42 41 40 39 38 39 39 39
32 32 32 32 32 32 31 31 31 31 32 32 33 34 34 35 36 38 39 39 39 40 41 41 42 42 43 44 46 47 48 48 48 48 49 49 49 48 48 48 47 47 46 45 44 43 42 41 41 41 40 39
34 35 35 34 33 33 32 32 32 32 32 32 32 33 33 34 35 37 39 40 40 41 41 41 42 43 44 44 45 46 47 48 49 50 50 51 51 50 50 50 50 50 50 48 46 45 44 44 44 42 41 40
35 36 36 36 36 35 34 33 33 33 33 33 33 34 34 35 35 36 37 38 39 40 40 40 40 42 43 44 45 46 46 47 48 49 50 51 51 52 52 52 52 52 52 50 49 48 48 47 45 44 43 42
36 36 37 37 38 37 36 35 34 34 34 34 35 36 37 37 38 38 38 39 39 40 40 40 40 40 41 43 44 45 46 46 47 48 48 49 50 51 51 52 52 52 52 52 51 51 49 48 47 46 45 44
37 37 38 38 39 40 40 39 39 38 38 38 38 39 39 40 40 41 41 42 42 42 42 42 42 42 43 43 43 44 45 45 46 47 48 48 49 49 49 50 50 50 51 51 51 51 49 48 48 47 46 46
39 40 40 40 41 42 42 42 43 43 43 43 43 43 43 43 43 44 44 45 45 45 45 45 45 45 45 45 45 45 45 45 46 47 47 48 49 50 50 50 49 49 50 49 49 49 48 48 47 46 47 48
44 44 44 45 45 45 46 46 45 46 46 47 47 47 47 47 47 47 47 48 48 49 49 49 48 49 48 48 48 48 48 48 48 48 48 49 49 50 51 51 51 50 50 50 50 49 49 49 48 47 47 48
48 49 50 51 52 52 52 52 50 49 49 49 49 49 50 51 51 52 51 51 51 52 52 52 52 52 52 52 52 52 52 52 52 51 51 51 51 51 52 53 53 52 53 53 52 52 52 52 52 51 51 50
Wind_Direction
291 293 295 297 297 294 291 289 286 281 276 272 269 266 264 261 260 258 257 256 257 259 260 260 260 260 259 258 258 257 257 257 258 259 259 259 259 259 259 260 260 262 263 264 265 265 265 264 264 263 262 261
281 282 284 286 288 289 289 288 287 285 282 279 275 271 267 264 262 260 260 258 256 257 258 258 259 260 261 261 261 260 259 259 259 259 260 260 261 261 262 262 263 263 264 265 266 266 266 266 265 265 263 262
276 276 276 277 278 279 281 282 283 283 282 280 278 274 271 267 264 263 262 260 258 257 257 257 257 257 259 260 261 261 261 260 259 259 260 260 261 262 262 263 264 264 264 265 265 266 266 267 267 266 266 265
274 273 272 272 272 272 272 274 276 277 278 278 277 275 273 271 269 267 266 265 263 261 259 259 258 258 257 258 258 259 259 260 261 260 260 260 261 261 262 263 263 264 264 264 264 265 265 266 267 267 266 266
272 271 270 269 269 269 269 269 269 269 271 271 272 272 272 271 270 270 269 268 267 265 262 260 259 259 258 258 258 258 258 259 261 262 262 262 262 262 262 262 263 263 263 263 264 264 264 264 265 265 266 266
272 270 269 268 268 268 268 267 265 264 264 264 265 266 268 268 269 269 269 268 267 266 264 262 261 260 260 260 260 260 260 260 260 261 262 263 263 264 264 264 264 264 264 264 263 263 263 263 263 263 264 264
275 273 271 270 269 268 267 266 265 263 261 260 260 260 262 263 264 266 267 267 266 266 264 263 262 262 261 261 261 261 261 261 260 260 261 261 262 264 265 266 266 266 266 266 265 265 264 263 263 262 262 263
280 277 275 273 270 269 267 265 264 262 260 259 258 258 258 259 259 260 262 264 265 265 264 263 262 261 261 261 261 262 261 261 261 260 260 261 261 262 263 264 265 266 266 267 267 266 266 265 264 263 263 262
286 282 279 276 273 271 268 265 263 261 260 258 256 256 256 256 256 256 257 259 261 262 263 263 262 261 260 260 261 261 261 261 261 261 261 261 262 262 262 263 264 265 265 266 266 266 266 265 265 264 263 263
290 287 283 279 276 273 270 266 263 261 259 258 256 255 255 254 254 254 254 255 256 258 259 259 260 260 260 260 260 260 260 261 261 261 261 261 262 262 263 263 264 265 266 266 266 266 265 265 264 264 263 263
287 287 286 284 280 276 272 268 265 262 261 260 258 257 255 254 253 253 253 253 253 254 255 256 256 257 258 259 260 260 260 260 260 260 260 260 261 262 262 262 263 263 264 265 265 266 266 266 265 265 264 264
279 281 282 282 281 279 275 271 267 264 262 261 260 259 257 255 254 253 253 253 253 253 254 254 254 254 254 255 257 258 258 258 259 260 260 260 260 261 261 260 260 261 262 263 263 264 265 265 266 266 266 266
266 270 272 274 275 276 275 273 270 266 264 262 260 259 258 257 255 254 254 254 255 255 256 255 255 253 252 252 254 255 256 257 258 259 260 260 260 261 261 261 260 261 261 262 262 262 263 264 264 265 266 266
261 263 264 266 268 269 271 271 270 268 265 263 261 260 259 258 256 255 255 255 257 258 259 259 259 257 255 253 253 253 255 256 257 258 259 259 260 260 262 262 262 262 262 262 262 262 263 263 263 264 264 265
263 263 263 264 264 265 266 267 268 268 266 265 263 261 259 258 257 256 255 255 257 259 260 262 262 261 259 257 255 254 254 256 257 257 258 259 259 260 261 262 262 262 262 262 262 262 262 262 262 262 263 263
263 263 263 263 263 264 264 265 265 266 267 266 265 263 261 260 258 257 256 255 256 257 259 261 262 262 261 259 258 256 256 256 257 257 258 258 258 259 260 262 262 262 262 262 262 261 261 261 261 261 261 261
264 263 263 263 263 263 263 264 264 264 265 266 266 265 264 262 260 259 257 256 256 256 258 259 260 261 261 260 259 258 258 258 258 258 259 259 259 259 260 261 262 262 262 262 262 261 261 261 260 260 259 259
265 264 264 264 264 263 263 263 262 262 263 264 265 266 265 264 262 261 259 258 257 256 257 257 257 259 259 259 259 259 259 259 259 259 260 260 261 260 261 262 263 263 263 263 263 263 262 261 261 260 259 258
264 263 263 263 263 263 262 262 261 261 261 262 263 264 264 264 264 263 261 260 258 257 256 256 256 256 258 258 259 259 259 260 260 261 261 262 263 263 263 263 265 265 265 265 265 265 264 264 263 262 261 260
264 264 263 264 264 264 263 262 261 260 259 259 260 260 261 262 262 263 263 262 260 259 257 256 255 255 256 257 258 258 258 260 261 262 263 264 265 265 264 264 265 266 266 266 265 265 266 266 266 265 264 263
262 264 264 264 265 265 265 265 264 263 261 260 260 259 259 259 260 261 262 262 262 261 259 257 256 256 256 256 257 257 257 258 259 261 263 264 265 265 265 264 264 264 265 265 265 266 266 267 267 267 267 265
256 259 262 263 264 264 265 267 268 268 266 265 263 261 260 259 259 260 260 261 262 263 263 261 259 258 257 257 257 257 257 257 258 259 261 262 263 264 265 265 265 265 266 266 266 266 266 266 267 267 266 265
253 254 256 259 261 262 263 265 267 269 269 269 268 266 263 262 261 260 260 261 262 264 265 265 263 262 260 259 258 258 258 257 257 258 259 260 261 263 266 267 267 268 268 268 268 268 267 266 266 265 264 264
255 254 253 253 254 255 257 259 261 263 266 267 268 268 268 266 264 263 263 264 266 267 267 267 266 264 263 262 261 260 259 259 258 258 258 259 260 262 263 265 266 267 267 267 268 269 269 267 265 264 264 264
260 259 257 254 251 251 251 253 254 256 258 260 263 265 266 267 266 265 265 267 268 269 270 270 269 268 266 264 263 263 262 261 259 259 259 259 260 261 262 263 264 265 266 267 267 267 267 266 265 265 265 265
265 264 262 260 256 253 251 251 251 252 254 256 258 260 262 263 264 264 265 266 267 268 269 270 270 270 269 268 266 265 265 264 262 261 261 261 261 262 262 263 264 266 267 267 267 266 266 266 266 266 265 264
265 265 264 264 262 259 256 254 254 254 254 255 256 257 258 260 262 263 264 264 265 267 268 268 269 269 268 268 268 267 266 266 265 265 263 263 262 262 263 263 264 265 266 267 266 266 266 267 266 265 264 264
265 264 263 263 263 261 260 260 259 259 260 259 259 258 258 258 259 260 262 263 264 265 266 267 267 267 267 266 266 266 265 265 265 266 266 265 265 264 264 263 263 263 264 265 266 266 267 266 266 266 265 265
265 265 264 262 261 261 261 261 262 263 263 263 263 263 262 261 260 259 259 260 261 262 263 264 264 265 265 265 265 264 263 263 263 263 264 265 265 265 265 264 263 263 263 264 265 266 266 266 266 265 264 263
263 264 263 263 262 262 262 263 264 265 265 264 264 264 265 265 264 262 261 260 260 260 261 261 261 262 263 263 264 263 262 262 262 262 262 262 263 264 265 265 264 263 263 263 263 264 265 266 266 265 264 263
262 263 263 263 264 264 265 265 265 266 267 266 265 265 266 266 265 265 264 262 261 261 260 260 261 261 261 261 261 261 261 261 262 262 262 262 262 262 263 264 264 264 264 263 263 263 264 265 266 266 265 264
Height
5866 5865 5865 5865 5865 5865 5865 5865 5865 5864 5864 5864 5864 5864 5865 5865 5865 5865 5866 5866 5866 5867 5867 5867 5867 5867 5868 5868 5868 5868 5868 5868 5868 5868 5868 5869 5869 5869 5869 5869 5869 5870 5870 5870 5870 5870 5870 5871 5871 5871 5871 5872
5864 5864 5864 5864 5864 5864 5864 5864 5863 5863 5863 5863 5863 5863 5863 5863 5863 5863 5864 5864 5864 5864 5865 5865 5865 5865 5866 5866 5866 5866 5866 5866 5867 5867 5867 5867 5867 5867 5867 5867 5868 5868 5868 5868 5868 5868 5869 5869 5869 5869 5869 5870
5863 5863 5863 5863 5863 5862 5862 5862 5862 5862 5862 5862 5862 5862 5862 5862 5861 5861 5862 5862 5862 5862 5862 5863 5863 5863 5863 5863 5863 5864 5864 5864 5864 5865 5865 5865 5865 5865 5865 5866 5866 5866 5866 5866 5866 5867 5867 5867 5867 5867 5867 5868
5861 5861 5861 5861 5861 5861 5861 5861 5861 5861 5861 5861 5860 5860 5860 5860 5860 5860 5860 5860 5860 5860 5861 5861 5861 5861 5861 5861 5861 5861 5861 5862 5862 5862 5863 5863 5863 5863 5863 5863 5864 5864 5864 5864 5864 5865 5865 5865 5865 5865 5865 5866
5859 5859 5859 5859 5859 5859 5859 5859 5859 5859 5859 5859 5859 5859 5859 5859 5858 5858 5858 5858 5858 5858 5858 5859 5858 5859 5859 5859 5859 5859 5859 5859 5860 5860 5860 5860 5860 5861 5861 5861 5861 5861 5862 5862 5862 5862 5862 5863 5863 5863 5863 5863
5857 5857 5857 5856 5856 5856 5856 5856 5857 5856 5856 5857 5857 5856 5857 5857 5857 5857 5857 5856 5856 5856 5856 5856 5856 5856 5856 5856 5856 5856 5856 5857 5857 5857 5857 5857 5857 5858 5858 5858 5859 5859 5859 5859 5859 5860 5860 5860 5860 5861 5861 5861
5854 5854 5854 5854 5854 5854 5854 5854 5854 5854 5854 5854 5854 5854 5854 5854 5855 5855 5855 5854 5854 5854 5854 5854 5854 5854 5854 5854 5854 5854 5854 5854 5854 5854 5854 5854 5855 5855 5855 5855 5855 5855 5856 5856 5857 5857 5857 5857 5857 5858 5858 5858
5852 5852 5852 5851 5851 5851 5851 5851 5851 5851 5851 5851 5851 5851 5852 5852 5852 5852 5852 5852 5852 5852 5852 5852 5852 5852 5852 5852 5851 5851 5851 5851 5851 5852 5852 5852 5852 5852 5852 5852 5852 5852 5853 5853 5853 5853 5854 5854 5854 5854 5855 5855
5849 5849 5849 5849 5849 5849 5848 5848 5848 5848 5848 5848 5848 5848 5849 5849 5849 5849 5849 5849 5849 5849 5849 5850 5850 5850 5850 5850 5849 5849 5849 5849 5849 5849 5849 5849 5850 5849 5850 5850 5850 5850 5850 5850 5850 5850 5850 5851 5851 5851 5851 5852
5847 5847 5846 5846 5846 5846 5846 5845 5845 5845 5845 5844 5845 5845 5845 5846 5846 5846 5846 5846 5846 5846 5846 5846 5847 5847 5847 5847 5847 5847 5846 5846 5846 5846 5846 5847 5847 5847 5847 5848 5848 5848 5848 5848 5848 5848 5848 5848 5848 5848 5848 5848
5845 5844 5844 5843 5843 5843 5842 5842 5842 5842 5842 5842 5842 5842 5842 5842 5842 5842 5843 5843 5842 5842 5842 5843 5843 5844 5844 5844 5844 5844 5844 5843 5843 5843 5843 5844 5844 5844 5844 5845 5845 5845 5845 5845 5845 5845 5845 5845 5845 5845 5845 5846
5842 5841 5841 5840 5840 5840 5839 5839 5839 5839 5839 5839 5839 5839 5839 5839 5839 5839 5839 5839 5839 5838 5838 5839 5839 5840 5840 5840 5840 5840 5840 5840 5840 5839 5840 5840 5841 5840 5840 5841 5842 5842 5842 5842 5842 5842 5842 5842 5842 5842 5843 5843
5839 5838 5838 5837 5837 5836 5836 5836 5836 5836 5836 5836 5836 5836 5835 5835 5836 5836 5836 5836 5835 5835 5835 5835 5835 5835 5836 5836 5836 5836 5836 5836 5836 5836 5836 5837 5837 5837 5837 5838 5838 5839 5839 5839 5839 5839 5839 5839 5839 5839 5839 5840
5836 5835 5835 5834 5834 5833 5833 5833 5833 5833 5833 5833 5833 5833 5832 5832 5833 5833 5833 5832 5832 5832 5831 5831 5831 5831 5831 5832 5832 5832 5832 5832 5832 5832 5832 5833 5833 5834 5833 5834 5835 5835 5835 5835 5835 5836 5836 5836 5836 5836 5836 5836
5833 5832 5832 5831 5831 5830 5830 5829 5829 5829 5829 5829 5829 5829 5829 5829 5829 5829 5829 5829 5829 5828 5827 5827 5827 5827 5827 5828 5827 5827 5827 5827 5828 5828 5828 5829 5829 5830 5829 5829 5831 5831 5831 5831 5832 5832 5832 5832 5833 5833 5832 5832
5828 5828 5828 5828 5828 5827 5826 5826 5826 5825 5825 5825 5825 5825 5825 5825 5825 5826 5826 5826 5825 5824 5824 5824 5823 5823 5823 5823 5823 5823 5823 5823 5823 5823 5824 5824 5825 5825 5825 5825 5826 5826 5827 5827 5827 5828 5828 5828 5828 5829 5829 5829
5824 5824 5824 5825 5825 5824 5824 5823 5823 5822 5822 5821 5821 5821 5821 5821 5821 5822 5822 5822 5822 5821 5820 5820 5819 5819 5819 5819 5818 5818 5819 5819 5818 5818 5819 5819 5820 5821 5821 5821 5821 5821 5822 5822 5822 5823 5823 5823 5823 5824 5824 5824
5819 5820 5820 5820 5820 5820 5820 5820 5820 5819 5819 5818 5818 5817 5817 5817 5817 5817 5817 5817 5817 5817 5817 5816 5816 5815 5814 5814 5814 5814 5814 5814 5814 5814 5814 5815 5815 5816 5817 5816 5816 5817 5817 5817 5817 5817 5818 5818 5818 5818 5819 5819
5815 5815 5815 5815 5815 5815 5816 5816 5816 5815 5815 5815 5815 5814 5813 5813 5812 5812 5812 5813 5813 5813 5812 5812 5812 5811 5810 5810 5810 5810 5810 5810 5810 5810 5810 5810 5810 5811 5812 5812 5811 5812 5812 5812 5812 5812 5813 5813 5813 5813 5814 5814
5811 5811 5811 5811 5811 5811 5811 5811 5811 5811 5811 5811 5811 5810 5810 5809 5808 5808 5808 5808 5808 5808 5808 5808 5807 5807 5806 5805 5805 5806 5806 5806 5806 5805 5805 5806 5806 5806 5807 5807 5807 5807 5807 5807 5807 5807 5808 5808 5809 5809 5809 5809
5807 5807 5807 5807 5807 5807 5807 5807 5807 5807 5807 5807 5807 5806 5806 5805 5805 5804 5804 5803 5803 5803 5803 5803 5803 5802 5801 5801 5801 5801 5801 5801 5801 5801 5801 5801 5801 5800 5801 5802 5802 5802 5802 5801 5802 5802 5803 5804 5804 5804 5804 5804
5803 5802 5802 5802 5802 5802 5802 5802 5802 5802 5803 5802 5802 5802 5802 5801 5801 5800 5800 5799 5799 5799 5798 5798 5798 5798 5797 5797 5796 5796 5796 5796 5796 5796 5796 5795 5795 5795 5795 5796 5797 5797 5797 5797 5797 5798 5798 5799 5799 5799 5799 5799
5798 5798 5797 5797 5797 5797 5797 5798 5798 5798 5798 5798 5798 5798 5798 5798 5797 5796 5796 5796 5795 5795 5794 5794 5794 5793 5793 5792 5792 5791 5791 5791 5791 5791 5791 5790 5790 5790 5790 5790 5791 5792 5792 5791 5792 5792 5793 5793 5794 5793 5793 5793
5795 5793 5793 5792 5792 5792 5792 5792 5792 5793 5793 5793 5793 5793 5793 5793 5793 5793 5792 5792 5792 5791 5791 5790 5789 5789 5788 5788 5787 5787 5787 5787 5786 5786 5785 5785 5785 5785 5785 5785 5785 5785 5785 5785 5786 5787 5787 5788 5788 5787 5788 5789
5792 5791 5790 5789 5787 5787 5786 5786 5786 5787 5787 5788 5788 5788 5788 5788 5788 5788 5788 5787 5787 5786 5786 5786 5785 5784 5784 5783 5782 5782 5782 5782 5781 5781 5780 5780 5780 5780 5780 5779 5779 5778 5779 5779 5780 5781 5781 5780 5781 5782 5783 5784
5788 5788 5787 5786 5785 5784 5783 5782 5781 5781 5781 5782 5782 5782 5782 5782 5782 5782 5782 5782 5781 5781 5781 5780 5780 5779 5779 5779 5778 5777 5777 5776 5776 5775 5775 5775 5775 5774 5774 5774 5773 5773 5773 5773 5774 5774 5774 5774 5775 5776 5777 5778
5784 5784 5783 5782 5782 5781 5780 5778 5778 5777 5776 5776 5776 5776 5776 5776 5775 5775 5775 5775 5775 5775 5774 5774 5774 5774 5773 5773 5773 5772 5772 5771 5771 5770 5770 5769 5769 5768 5768 5768 5768 5768 5767 5767 5767 5767 5767 5768 5769 5769 5771 5773
5780 5780 5779 5778 5777 5776 5775 5775 5774 5773 5772 5771 5771 5770 5770 5769 5769 5769 5769 5768 5768 5768 5768 5768 5767 5767 5767 5767 5766 5766 5766 5766 5766 5765 5764 5764 5763 5763 5762 5763 5763 5762 5761 5761 5761 5761 5761 5762 5762 5763 5765 5766
5776 5775 5774 5773 5772 5771 5771 5770 5769 5768 5768 5767 5766 5765 5764 5764 5763 5762 5762 5761 5761 5761 5761 5761 5760 5760 5760 5760 5760 5760 5760 5760 5759 5759 5758 5758 5757 5757 5756 5757 5757 5757 5756 5756 5756 5755 5755 5755 5755 5757 5758 5758
5769 5769 5768 5767 5767 5766 5765 5765 5764 5763 5762 5761 5760 5760 5759 5759 5758 5757 5756 5755 5754 5753 5753 5753 5753 5753 5752 5752 5752 5752 5752 5752 5752 5752 5751 5751 5751 5750 5750 5750 5750 5751 5751 5751 5751 5750 5749 5749 5749 5750 5750 5751
5762 5761 5761 5760 5759 5758 5758 5758 5757 5757 5756 5755 5754 5753 5753 5752 5752 5751 5750 5749 5748 5747 5746 5746 5745 5745 5745 5745 5745 5745 5745 5744 5744 5744 5744 5744 5744 5743 5743 5742 5743 5744 5744 5744 5745 5745 5744 5744 5743 5743 5743 5744